When you browse on this site, cookies collect data to enhance your experience and personalize the content and advertising you see.
Visit our Privacy Policy to learn more. By continuing to use the site, you agree to this use of cookies and data.
  • In Schweiz
  • Länderverzeichnis
  • Für 7 Tage
  • Wassertemperatur
  • Wetterkarte
  • Widgets
  • user-avatar
    Anmelden

    Stündliche Wetter Pomogaylovo

    Heute, 24 August, Samstag

    Zeit Temperatur Niederschläge Wind Luftdruck Luftfeuchtigkeit
    00:00 +13°C° 0 mm 1 m/S 750 mmHg 88%
    01:00 +13°C° 0 mm 1 m/S 750 mmHg 88%
    02:00 +12°C° 0 mm 1 m/S 750 mmHg 89%
    03:00 +12°C° 0 mm 1 m/S 750 mmHg 90%
    04:00 +12°C° 0 mm 1 m/S 750 mmHg 91%
    05:00 +12°C° 0 mm 1 m/S 749 mmHg 92%
    06:00 +14°C° 0 mm 2 m/S 749 mmHg 86%
    07:00 +15°C° 0 mm 2 m/S 749 mmHg 81%
    08:00 +17°C° 0 mm 2 m/S 749 mmHg 75%
    09:00 +19°C° 0 mm 3 m/S 749 mmHg 71%
    10:00 +20°C° 0 mm 3 m/S 749 mmHg 66%
    11:00 +21°C° 0 mm 3 m/S 749 mmHg 62%
    12:00 +22°C° 0 mm 4 m/S 749 mmHg 60%
    13:00 +22°C° 0 mm 4 m/S 749 mmHg 59%
    14:00 +23°C° 0 mm 4 m/S 748 mmHg 58%
    15:00 +22°C° 0 mm 3 m/S 748 mmHg 62%
    16:00 +22°C° 0 mm 3 m/S 748 mmHg 66%
    17:00 +23°C° 0 mm 2 m/S 748 mmHg 70%
    18:00 +20°C° 0 mm 2 m/S 748 mmHg 76%
    19:00 +18°C° 0 mm 2 m/S 748 mmHg 82%
    20:00 +17°C° 0 mm 2 m/S 748 mmHg 88%
    21:00 +16°C° 0 mm 2 m/S 748 mmHg 90%
    22:00 +15°C° 0 mm 2 m/S 748 mmHg 93%
    23:00 +15°C° 0 mm 1 m/S 748 mmHg 95%

    Morgen, 25 August, Sonntag

    Zeit Temperatur Niederschläge Wind Luftdruck Luftfeuchtigkeit
    00:00 +14°C° 0 mm 1 m/S 748 mmHg 95%
    01:00 +14°C° 0 mm 1 m/S 748 mmHg 95%
    02:00 +14°C° 0 mm 1 m/S 749 mmHg 94%
    03:00 +13°C° 0 mm 1 m/S 749 mmHg 95%
    04:00 +13°C° 0 mm 1 m/S 749 mmHg 95%
    05:00 +12°C° 0 mm 1 m/S 749 mmHg 95%
    06:00 +14°C° 0 mm 1 m/S 749 mmHg 89%
    07:00 +15°C° 0 mm 1 m/S 749 mmHg 84%
    08:00 +17°C° 0 mm 2 m/S 750 mmHg 78%
    09:00 +18°C° 0 mm 2 m/S 750 mmHg 71%
    10:00 +19°C° 0 mm 2 m/S 750 mmHg 64%
    11:00 +21°C° 0 mm 2 m/S 750 mmHg 57%
    12:00 +21°C° 0 mm 2 m/S 750 mmHg 55%
    13:00 +21°C° 0 mm 2 m/S 750 mmHg 53%
    14:00 +23°C° 0 mm 2 m/S 750 mmHg 52%
    15:00 +21°C° 0 mm 2 m/S 750 mmHg 57%
    16:00 +22°C° 0 mm 1 m/S 750 mmHg 61%
    17:00 +22°C° 0 mm 1 m/S 750 mmHg 66%
    18:00 +20°C° 0 mm 1 m/S 750 mmHg 72%
    19:00 +16°C° 0 mm 1 m/S 750 mmHg 78%
    20:00 +14°C° 0 mm 1 m/S 750 mmHg 83%
    21:00 +14°C° 0 mm 1 m/S 750 mmHg 86%
    22:00 +13°C° 0 mm 1 m/S 751 mmHg 89%
    23:00 +13°C° 0 mm 1 m/S 751 mmHg 91%

    übermorgen, 26 August, Montag

    Zeit Temperatur Niederschläge Wind Luftdruck Luftfeuchtigkeit
    00:00 +13°C° 0 mm 1 m/S 751 mmHg 92%
    01:00 +12°C° 0 mm 1 m/S 751 mmHg 93%
    02:00 +12°C° 0 mm 1 m/S 751 mmHg 93%
    03:00 +12°C° 0 mm 1 m/S 751 mmHg 94%
    04:00 +11°C° 0 mm 1 m/S 751 mmHg 94%
    05:00 +10°C° 0 mm 0 m/S 751 mmHg 94%
    06:00 +12°C° 0 mm 0 m/S 751 mmHg 88%
    07:00 +14°C° 0 mm 0 m/S 751 mmHg 82%
    08:00 +16°C° 0 mm 0 m/S 751 mmHg 76%
    09:00 +20°C° 0 mm 1 m/S 751 mmHg 70%
    10:00 +21°C° 0 mm 1 m/S 750 mmHg 65%
    11:00 +23°C° 0 mm 1 m/S 750 mmHg 59%
    12:00 +23°C° 0 mm 1 m/S 750 mmHg 58%
    13:00 +23°C° 0 mm 1 m/S 750 mmHg 56%
    14:00 +23°C° 0 mm 2 m/S 750 mmHg 55%
    15:00 +23°C° 0 mm 2 m/S 749 mmHg 59%
    16:00 +21°C° 0 mm 2 m/S 749 mmHg 64%
    17:00 +22°C° 0 mm 1 m/S 748 mmHg 69%
    18:00 +20°C° 0 mm 1 m/S 748 mmHg 74%
    19:00 +18°C° 0 mm 1 m/S 748 mmHg 80%
    20:00 +15°C° 0 mm 1 m/S 748 mmHg 85%
    21:00 +15°C° 0 mm 1 m/S 748 mmHg 86%
    22:00 +14°C° 0 mm 1 m/S 748 mmHg 86%
    23:00 +14°C° 0 mm 1 m/S 748 mmHg 86%

    27 August, Dienstag

    Zeit Temperatur Niederschläge Wind Luftdruck Luftfeuchtigkeit
    00:00 +14°C° 0 mm 2 m/S 747 mmHg 87%
    01:00 +14°C° 0 mm 2 m/S 747 mmHg 89%
    02:00 +14°C° 0 mm 2 m/S 747 mmHg 90%
    03:00 +14°C° 0 mm 2 m/S 747 mmHg 92%
    04:00 +14°C° 0 mm 2 m/S 746 mmHg 94%
    05:00 +14°C° 0 mm 2 m/S 746 mmHg 96%
    06:00 +15°C° 0 mm 2 m/S 746 mmHg 92%
    07:00 +16°C° 0 mm 3 m/S 746 mmHg 88%
    08:00 +18°C° 0 mm 3 m/S 746 mmHg 84%
    09:00 +19°C° 0 mm 3 m/S 746 mmHg 78%
    10:00 +21°C° 0 mm 4 m/S 746 mmHg 71%
    11:00 +22°C° 0 mm 4 m/S 746 mmHg 64%
    12:00 +22°C° 0 mm 4 m/S 746 mmHg 63%
    13:00 +22°C° 0 mm 5 m/S 746 mmHg 62%
    14:00 +22°C° 0 mm 5 m/S 746 mmHg 61%
    15:00 +22°C° 0 mm 4 m/S 746 mmHg 62%
    16:00 +21°C° 0 mm 4 m/S 746 mmHg 63%
    17:00 +20°C° 0 mm 3 m/S 746 mmHg 65%
    18:00 +18°C° 0 mm 3 m/S 746 mmHg 69%
    19:00 +16°C° 0 mm 3 m/S 746 mmHg 73%
    20:00 +14°C° 0 mm 3 m/S 746 mmHg 76%
    21:00 +13°C° 0 mm 3 m/S 747 mmHg 80%
    22:00 +12°C° 0 mm 3 m/S 747 mmHg 84%
    23:00 +12°C° 0 mm 2 m/S 748 mmHg 88%

    28 August, Mittwoch

    Zeit Temperatur Niederschläge Wind Luftdruck Luftfeuchtigkeit
    00:00 +12°C° 0 mm 2 m/S 748 mmHg 91%
    01:00 +10°C° 0 mm 2 m/S 748 mmHg 93%
    02:00 +9°C° 0 mm 2 m/S 748 mmHg 95%
    03:00 +10°C° 0 mm 1 m/S 748 mmHg 95%
    04:00 +9°C° 0 mm 1 m/S 749 mmHg 95%
    05:00 +9°C° 0 mm 1 m/S 749 mmHg 95%
    06:00 +11°C° 0 mm 1 m/S 749 mmHg 86%
    07:00 +12°C° 0 mm 2 m/S 749 mmHg 78%
    08:00 +14°C° 0 mm 2 m/S 750 mmHg 69%
    09:00 +15°C° 0 mm 2 m/S 750 mmHg 62%
    10:00 +16°C° 0 mm 3 m/S 750 mmHg 56%
    11:00 +17°C° 0 mm 3 m/S 750 mmHg 49%
    12:00 +18°C° 0 mm 3 m/S 749 mmHg 48%
    13:00 +18°C° 0 mm 3 m/S 749 mmHg 47%
    14:00 +18°C° 0 mm 3 m/S 749 mmHg 46%
    15:00 +18°C° 0 mm 3 m/S 749 mmHg 51%
    16:00 +18°C° 0 mm 2 m/S 749 mmHg 56%
    17:00 +17°C° 0 mm 2 m/S 749 mmHg 60%
    18:00 +15°C° 0 mm 2 m/S 749 mmHg 65%
    19:00 +13°C° 0 mm 1 m/S 749 mmHg 69%
    20:00 +11°C° 0 mm 1 m/S 749 mmHg 73%
    21:00 +11°C° 0 mm 1 m/S 749 mmHg 73%
    22:00 +10°C° 0 mm 1 m/S 749 mmHg 73%
    23:00 +9°C° 0 mm 1 m/S 749 mmHg 74%

    29 August, Donnerstag

    Zeit Temperatur Niederschläge Wind Luftdruck Luftfeuchtigkeit
    00:00 +9°C° 0 mm 1 m/S 749 mmHg 74%
    01:00 +8°C° 0 mm 1 m/S 749 mmHg 74%
    02:00 +8°C° 0 mm 1 m/S 749 mmHg 75%
    03:00 +7°C° 0 mm 1 m/S 750 mmHg 75%
    04:00 +6°C° 0 mm 0 m/S 750 mmHg 75%
    05:00 +6°C° 0 mm 0 m/S 750 mmHg 75%
    06:00 +8°C° 0 mm 0 m/S 750 mmHg 69%
    07:00 +10°C° 0 mm 0 m/S 750 mmHg 64%
    08:00 +13°C° 0 mm 1 m/S 750 mmHg 58%
    09:00 +15°C° 0 mm 1 m/S 750 mmHg 54%
    10:00 +16°C° 0 mm 1 m/S 750 mmHg 50%
    11:00 +19°C° 0 mm 1 m/S 749 mmHg 46%
    12:00 +20°C° 0 mm 1 m/S 749 mmHg 47%
    13:00 +20°C° 0 mm 1 m/S 749 mmHg 48%
    14:00 +21°C° 0 mm 1 m/S 749 mmHg 49%
    15:00 +21°C° 0 mm 1 m/S 749 mmHg 55%
    16:00 +20°C° 0 mm 1 m/S 749 mmHg 61%
    17:00 +20°C° 0 mm 1 m/S 749 mmHg 67%
    18:00 +18°C° 0 mm 1 m/S 748 mmHg 73%
    19:00 +15°C° 0 mm 1 m/S 748 mmHg 79%
    20:00 +13°C° 0 mm 1 m/S 748 mmHg 85%
    21:00 +13°C° 0 mm 1 m/S 748 mmHg 86%
    22:00 +12°C° 0 mm 1 m/S 748 mmHg 88%
    23:00 +12°C° 0 mm 1 m/S 749 mmHg 89%
    Mehr zeigen